SL-14 R/B

Satellite information

Favourite Embed

Satellite Type and Status

ROCKET BODYIN ORBIT

Key statistics

Satellite SL-14 R/B at a glance.

Uptime

11855

Days in orbit

Revolutions

≈ 14.8

Per day

Orbit

LEO

Low Earth Orbit

Inclination

82.5

Latest

Satellite identification and parameters

Extended collection of information and parameters for SL-14 R/B.

Object identification

Identified? True

Debris? False

Object name: SL-14 R/B

International designator: 1992-080B

Object number (NORAD): 22237

Object ID (CCSDS): 22237

Country: COMMONWEALTH OF INDEPENDENT STATES (CIS)

Current information (Y/N): Y

RCS size: LARGE

Orbital parameters

Period: 97.296 minutes

Inclination: 82.5094 deg

SMA: 7007.398 km

Apoapsis: 643.528 km

Periapsis: 614.999 km

RAAN: 313.6509 deg

Eccentricy: 0.0020356

Argument of periapsis: 127.7881 deg

Mean anomaly: 232.5179 deg

Mean motion: 14.80019901 rev/day

Mean motion (dot): 0.00000501 rev/day2

B* drag term: 0.000062895 1/REarth

Two-line elements (TLE)

Creation date: May 10, 2025, 2:32 a.m.

Reference frame: TEME

Reference center: EARTH

Epoch: May 9, 2025, 10:43 p.m. UTC

TLE line 0: 0 SL-14 R/B

TLE line 1: 1 22237U 92080B 25129.94698471 .00000501 00000-0 62895-4 0 9992

TLE line 2: 2 22237 82.5094 313.6509 0020356 127.7881 232.5179 14.80019901749500

Live tracking on map

Real-time ground track for satellite SL-14 R/B.

In-orbit conjunctions

A list of the most updated potential collisions computed for object SL-14 R/B.

Target Orbit TCA Probability of collision Miss distance Type
CZ-6A DEB LEO 2024-10-28 05:45:57 0.0001309167 30.0 (m) DEBRIS
CZ-6A DEB LEO 2024-10-03 04:16:03 0.0001234263 466.0 (m) DEBRIS
H-2A R/B SSO 2024-06-19 12:14:35 0.0002165657 153.0 (m) ROCKET BODY

Associated space launch

Tselina-D satellites provided detailed observation of radio sources detected by the smaller Tselina-O satellites as part of the Tselina ELINT system.

SL-14 R/B was lifted into orbit during the mission ‘Tsiklon-3 | Tselina-D 67’, on board a Tsiklon-3 space rocket.

The launch took place on Nov. 24, 1992, 4:09 a.m. from 32/2.

For more information about the launch, click the button.

Launch to space Tsiklon-3 | Tselina-D 67
Tsiklon-3 | Tselina-D 67

Agency: N/A

Status: Launch Successful

Launch date: Nov. 24, 1992, 4:09 a.m. UTC

Rocket: Tsiklon-3

Launch pad: 32/2

Location: Plesetsk Cosmodrome, Russian Federation

...

Latest news about this satellite

There are no fresh news available about this satellite. Check back as we update our databases every day.


Newsletter sign-up

Weekly statistics, charts and insights to help you stay on top of the space industry.